Retour au catalogue

CZ-6A DEB

ActifSSO
NORAD 54899·DEBRIS·🇨🇳 China

Lancé Nov 11, 2022 depuis Taiyuan Satellite Launch Center

Loading…

Prochains Passages (prochaines 24 heures)

TLE

FraisSource: Space-Track

Époque: Sep 12, 2026, 23:52 UTC

1 54899U 22151QL  26255.99466316  .00001923  00000-0  78031-3 0  9997
2 54899  98.7715 276.3500 0026516  58.8744 301.5033 14.28637129196221

Suivez CZ-6A DEB en temps réel avec AllMySat

Download on the App Store